[[{"header":{"parameterUnit":"m.s-1","parameterCategory":1,"la1":30.2991,"la2":30.254,"lo1":-89.0895,"lo2":-89.0444,"dy":0.0017,"dx":0.0017,"nx":28,"ny":28,"refTime":"2026-01-01T03:00:00:Z","depth":0,"parameterNumber":2,"parameterNumberName":"U-component_of_WINDS"},"data":[0,0,0,0,0,0,0,0,0,0,0,0,0,0,0,0,0,0,0,0,0,0,0,0,0,0,0,0,0,0,0,0,0,0,0,0,0,0,0,0,0,0,0,0,0,0,0,0,0,0,0,0,0,0,0,0,0,0,3.6088,3.6088,0,3.6145,3.6146,3.6146,3.6104,3.6103,3.6101,3.6099,3.616,3.6164,3.6167,0,0,0,0,0,0,0,0,0,0,0,0,0,3.5944,3.5947,3.6088,3.6088,3.6089,3.6145,3.6146,3.6147,3.6105,3.6103,3.61,3.6098,3.6159,3.6163,3.6167,0,0,0,0,0,0,0,0,0,0,0,0,0,3.6004,3.5948,3.6088,3.6075,3.6074,3.6145,3.6146,3.6147,3.6105,3.6102,3.61,3.6097,3.6158,3.6163,3.6168,3.6255,0,0,3.6183,3.6185,0,0,0,0,0,0,0,0,3.6001,3.601,3.6076,3.6076,3.6075,3.6115,3.6118,3.6183,3.6106,3.6094,3.6099,3.6096,3.6148,3.6153,3.617,3.6258,3.626,3.6184,3.6187,3.6189,3.619,0,0,0,0,0,0,0,3.5997,3.6007,3.611,3.6077,3.6077,3.6067,3.6073,3.613,3.6136,3.6094,3.6092,3.6099,3.6147,3.6166,3.6171,3.6261,3.6184,3.6188,3.6191,3.6193,3.6422,3.6425,0,0,0,0,0,0,3.5994,3.6004,3.6109,3.6112,3.603,3.6072,3.6078,3.6105,3.6135,3.6137,3.6101,3.6097,3.6158,3.6166,3.6173,3.6277,3.6189,3.6194,3.6196,3.6419,3.6423,3.6426,0,0,0,0,0,0,3.5991,3.6003,3.6106,3.6057,3.607,3.6077,3.6108,3.6108,3.6126,3.614,3.6141,3.6119,3.6156,3.6166,3.6235,3.6278,3.6196,3.62,3.6416,3.6421,3.6425,3.6484,0,0,0,0,0,0,3.5987,3.6002,3.6035,3.6058,3.6072,3.6166,3.6111,3.6111,3.6135,3.6129,3.6157,3.6159,3.6155,3.6227,3.624,3.6284,3.6204,3.6412,3.6418,3.6423,3.6479,3.649,3.6501,0,0,0,0,0,3.5982,3.605,3.6037,3.605,3.6113,3.6169,3.6177,3.617,3.6138,3.6171,3.618,3.6158,3.6272,3.6235,3.6248,3.6294,3.6409,3.6416,3.6423,3.6474,3.6488,3.65,0,0,0,0,0,0,3.6033,3.6053,3.6038,3.6116,3.6141,3.6161,3.6203,3.6186,3.6221,3.6214,3.6206,3.6212,3.6284,3.6296,3.6254,3.638,3.6335,3.6345,3.6369,3.6383,3.6394,3.6389,3.6209,0,0,0,0,0,3.6053,3.6096,3.6111,3.6178,3.6191,3.6195,3.6219,3.6212,3.6237,3.6248,3.6262,3.6288,3.6329,3.6357,3.6396,3.648,3.6486,3.6519,3.653,3.6539,3.6547,3.6593,3.6607,3.6449,3.6449,3.6449,0,0,3.6095,3.6112,3.6139,3.6189,3.6207,3.6252,3.6204,3.6254,3.6287,3.6256,3.632,3.6332,3.6361,3.6437,3.6471,3.6449,3.6592,3.6548,3.6555,3.6558,3.6601,3.6616,3.663,3.6454,3.6453,3.6452,0,0,3.6195,3.6212,3.627,3.6289,3.6317,3.6319,3.6333,3.6356,3.6361,3.6426,3.6403,3.6444,3.6515,3.6537,3.6557,3.6665,3.6646,3.6678,3.6736,3.678,3.6792,3.6803,3.6842,3.6855,3.6687,3.6687,3.6687,0,3.6245,3.631,3.6302,3.6353,3.6375,3.6348,3.6407,3.6426,3.6466,3.6482,3.6457,3.6546,3.6564,3.6645,3.6671,3.6689,3.6704,3.6675,3.6791,3.6802,3.6812,3.6849,3.6863,3.6691,3.669,3.669,3.669,0,3.637,3.6416,3.6459,3.6497,3.6525,3.658,3.658,3.6609,3.6599,3.6604,3.6671,3.6691,3.6733,3.6752,3.6744,3.6832,3.6817,3.6792,3.6747,3.6831,3.6865,3.6879,3.6696,3.6695,3.6694,3.6693,0,0,3.6503,3.6535,3.6551,3.6568,3.6597,3.6633,3.6687,3.6727,3.6752,3.6781,3.6826,3.6887,3.6864,3.6887,3.6881,3.6919,3.7003,3.6889,3.689,3.6909,3.7101,3.712,3.7136,3.6991,3.6994,3.6996,3.7099,0,3.6604,3.6697,3.669,3.6778,3.682,3.6795,3.6842,3.6865,3.6871,3.6909,3.6916,3.6959,3.6925,3.6939,3.6976,3.6985,3.7042,3.6978,3.7033,3.7035,3.7026,3.7154,3.7174,3.727,3.7112,3.7114,3.7116,0,3.6734,3.6766,3.6858,3.688,3.6897,3.694,3.6976,3.7012,3.7038,3.704,3.7066,3.7053,3.7108,3.7062,3.7137,3.7094,3.7116,3.7124,3.7128,3.7132,3.708,3.7161,3.7301,3.7315,3.7137,3.7135,3.7134,0,3.6822,3.6888,3.6951,3.6966,3.6994,3.7024,3.7037,3.706,3.7085,3.7117,3.7133,3.7172,3.7193,3.7224,3.7222,3.7189,3.7299,3.7253,3.7302,3.7302,3.7326,3.7324,3.747,3.7341,3.7341,3.7341,3.7341,0,3.6935,3.6992,3.6991,3.7029,3.7092,3.7085,3.7148,3.7158,3.7178,3.7219,3.72,3.7239,3.7235,3.7274,3.7273,3.7336,3.7346,3.7349,3.7348,3.735,3.735,3.7364,3.7357,3.7345,3.7344,3.7343,3.7342,0,3.7043,3.7045,3.7112,3.7132,3.7139,3.7184,3.7202,3.7239,3.7243,3.7295,3.7307,3.7314,3.7359,3.7361,3.7413,3.7413,3.7488,3.748,3.7479,3.7478,3.7526,3.7522,3.7686,3.7707,3.7566,3.7567,3.7568,0,3.7115,3.7158,3.7183,3.7208,3.7223,3.7264,3.7289,3.7284,3.7311,3.7343,3.7377,3.742,3.7454,3.7527,3.7538,3.7577,3.757,3.7625,3.7576,3.7576,3.757,3.7567,3.7571,3.7634,3.7636,3.7637,3.7638,0,3.7242,3.7241,3.7277,3.7314,3.7344,3.7373,3.7399,3.7422,3.7419,3.7451,3.7496,3.7522,3.7575,3.7618,3.7657,3.7671,3.7654,3.7653,3.7667,3.7669,3.7667,3.7668,3.7505,3.765,3.7648,3.7648,3.7647,3.7647,3.7334,3.7371,3.7394,3.7435,3.7454,3.748,3.7515,3.7524,3.7561,3.7603,3.7598,3.7649,3.7674,3.7723,3.7741,3.778,3.7761,3.7781,3.7786,3.7791,3.7795,3.7661,3.7788,3.7787,3.7787,3.7787,3.7786,0,3.7459,3.7473,3.7511,3.7548,3.7581,3.7562,3.759,3.7619,3.7663,3.7688,3.7721,3.7774,3.7815,3.7829,3.7869,3.7899,3.7892,3.7909,3.7907,3.791,3.7811,3.7794,3.7914,3.7914,3.7914,3.7914,3.7914,3.7914,3.7528,3.759,3.7591,3.7662,3.7675,3.7724,3.7741,3.7765,3.7784,3.7843,3.7877,3.7885,3.7906,3.7947,3.7985,3.7988,3.8003,3.8024,3.8024,3.793,3.7917,3.7905,3.789,3.8027,3.8027,3.812,3.8121,3.8121]},{"header":{"parameterUnit":"m.s-1","parameterCategory":1,"la1":30.2991,"la2":30.254,"lo1":-89.0895,"lo2":-89.0444,"dy":0.0017,"dx":0.0017,"nx":28,"ny":28,"refTime":"2026-01-01T03:00:00:Z","depth":0,"parameterNumber":3,"parameterNumberName":"V-component_of_WINDS"},"data":[0,0,0,0,0,0,0,0,0,0,0,0,0,0,0,0,0,0,0,0,0,0,0,0,0,0,0,0,0,0,0,0,0,0,0,0,0,0,0,0,0,0,0,0,0,0,0,0,0,0,0,0,0,0,0,0,0,0,1.6952,1.6952,0,1.6937,1.6937,1.6937,1.6927,1.6927,1.6927,1.6927,1.691,1.691,1.6909,0,0,0,0,0,0,0,0,0,0,0,0,0,1.6968,1.6967,1.6952,1.6952,1.6952,1.6937,1.6937,1.6937,1.6927,1.6927,1.6927,1.6927,1.691,1.691,1.6909,0,0,0,0,0,0,0,0,0,0,0,0,0,1.6958,1.6967,1.6952,1.6945,1.6944,1.6937,1.6937,1.6937,1.6927,1.6927,1.6927,1.6927,1.6911,1.691,1.6909,1.6907,0,0,1.6908,1.6907,0,0,0,0,0,0,0,0,1.6958,1.6957,1.6946,1.6946,1.6945,1.6934,1.6936,1.6927,1.6927,1.6934,1.6927,1.6927,1.6918,1.6917,1.6914,1.6907,1.6906,1.6907,1.6907,1.6907,1.6907,0,0,0,0,0,0,0,1.6959,1.6958,1.6946,1.6946,1.6945,1.6941,1.694,1.6935,1.6927,1.6933,1.6932,1.6931,1.6918,1.6915,1.6914,1.6906,1.6907,1.6907,1.6907,1.6906,1.6893,1.6893,0,0,0,0,0,0,1.6961,1.6958,1.6947,1.6946,1.6951,1.6941,1.694,1.6938,1.6927,1.6925,1.6931,1.6931,1.6916,1.6915,1.6913,1.6908,1.6907,1.6906,1.6906,1.6893,1.6893,1.6893,0,0,0,0,0,0,1.6962,1.696,1.6947,1.6952,1.695,1.6941,1.6939,1.6937,1.6935,1.6925,1.6923,1.693,1.6916,1.6914,1.6908,1.6908,1.6906,1.6905,1.6893,1.6893,1.6893,1.69,0,0,0,0,0,0,1.6962,1.696,1.6961,1.6952,1.695,1.6944,1.6939,1.6937,1.6934,1.6933,1.6924,1.6922,1.6916,1.6909,1.6908,1.6907,1.6905,1.6893,1.6893,1.6893,1.69,1.69,1.6901,0,0,0,0,0,1.6963,1.6964,1.6961,1.6959,1.695,1.6944,1.6943,1.6936,1.6934,1.6933,1.6927,1.6922,1.6908,1.6909,1.6907,1.6906,1.6893,1.6893,1.6893,1.69,1.69,1.6901,0,0,0,0,0,0,1.6972,1.6962,1.6959,1.6957,1.6952,1.6942,1.6942,1.6937,1.6931,1.6931,1.6922,1.692,1.6915,1.691,1.6911,1.6902,1.69,1.6899,1.6906,1.6906,1.6907,1.6908,1.6905,0,0,0,0,0,1.6974,1.6971,1.6962,1.6961,1.6959,1.6951,1.6948,1.6943,1.6936,1.6934,1.6927,1.692,1.6913,1.6909,1.6903,1.6899,1.6895,1.6897,1.6897,1.6898,1.6898,1.6892,1.6892,1.6893,1.6893,1.6893,0,0,1.6978,1.6972,1.6971,1.6963,1.6958,1.6954,1.6949,1.6945,1.6941,1.6933,1.6927,1.6921,1.6913,1.6907,1.6904,1.6903,1.6896,1.6898,1.6898,1.6898,1.6892,1.6892,1.6892,1.6892,1.6892,1.6892,0,0,1.6983,1.6979,1.6977,1.6972,1.6964,1.6958,1.6958,1.6949,1.6945,1.6939,1.6932,1.6926,1.6916,1.691,1.6905,1.6905,1.6899,1.6903,1.6905,1.69,1.69,1.69,1.6898,1.6898,1.6903,1.6903,1.6903,0,1.6989,1.6983,1.6977,1.6973,1.6968,1.6961,1.6957,1.6952,1.6943,1.6939,1.6938,1.6924,1.6917,1.6909,1.6909,1.6906,1.6903,1.6904,1.6901,1.6901,1.69,1.6899,1.6898,1.6903,1.6903,1.6903,1.6903,0,1.699,1.6986,1.6985,1.6976,1.6971,1.6968,1.6959,1.6955,1.695,1.6944,1.6936,1.6928,1.6919,1.6917,1.6912,1.6907,1.6906,1.6903,1.69,1.6901,1.6899,1.6898,1.6903,1.6903,1.6903,1.6903,0,0,1.7002,1.6988,1.6987,1.6982,1.6972,1.6968,1.6963,1.6954,1.695,1.6943,1.6937,1.6928,1.6924,1.6919,1.6913,1.6909,1.6906,1.6906,1.6905,1.6905,1.6898,1.69,1.6899,1.6903,1.6903,1.6903,1.6898,0,1.7004,1.6996,1.6989,1.6982,1.6977,1.6968,1.6964,1.6956,1.6949,1.6943,1.6935,1.6928,1.6925,1.6921,1.6916,1.6908,1.6905,1.6908,1.6896,1.6896,1.6898,1.6898,1.6901,1.6897,1.6897,1.6897,1.6897,0,1.7006,1.7,1.6993,1.6981,1.6979,1.6975,1.6965,1.6959,1.6949,1.6945,1.6938,1.6931,1.6923,1.6921,1.6909,1.6911,1.6906,1.69,1.69,1.6898,1.6896,1.6895,1.6896,1.6895,1.6896,1.6896,1.6896,0,1.7014,1.7003,1.6997,1.6993,1.698,1.6976,1.6971,1.6961,1.6955,1.6946,1.6942,1.6932,1.6927,1.6918,1.6908,1.6908,1.6896,1.6894,1.6891,1.6891,1.6889,1.6889,1.6887,1.6886,1.6886,1.6886,1.6886,0,1.7017,1.7013,1.7,1.6996,1.699,1.6981,1.6975,1.6968,1.6959,1.6952,1.6944,1.6938,1.6925,1.6917,1.6909,1.6899,1.6897,1.6891,1.6889,1.6892,1.6892,1.6887,1.6887,1.6886,1.6886,1.6886,1.6886,0,1.7025,1.7016,1.7009,1.6996,1.6993,1.6989,1.6977,1.6972,1.6965,1.6956,1.6953,1.6941,1.693,1.6919,1.6905,1.69,1.6889,1.6887,1.6893,1.6891,1.6888,1.6888,1.6883,1.6881,1.6882,1.6882,1.6882,0,1.7027,1.7024,1.701,1.7006,1.7,1.6992,1.6987,1.6976,1.697,1.6957,1.6953,1.6942,1.6933,1.6915,1.6904,1.6892,1.6889,1.6888,1.6887,1.6889,1.6887,1.6887,1.6886,1.6888,1.6888,1.6888,1.6888,0,1.7032,1.7027,1.702,1.701,1.7003,1.6995,1.6986,1.6982,1.697,1.6963,1.6952,1.6945,1.6929,1.6917,1.6904,1.6896,1.6889,1.6888,1.6887,1.6889,1.6892,1.6889,1.6893,1.6888,1.6888,1.6888,1.6888,1.6888,1.7036,1.7032,1.7021,1.7012,1.7004,1.6996,1.699,1.6981,1.6972,1.6959,1.6953,1.6942,1.6929,1.691,1.6902,1.6892,1.689,1.6888,1.6888,1.6887,1.6887,1.6894,1.689,1.689,1.689,1.6889,1.6889,0,1.7039,1.7031,1.7023,1.7011,1.7003,1.6998,1.6987,1.6981,1.6971,1.6961,1.6951,1.6937,1.6925,1.6912,1.6899,1.6893,1.6889,1.6889,1.6889,1.6887,1.689,1.6892,1.6892,1.6892,1.6892,1.6892,1.6892,1.6892,1.704,1.7031,1.7025,1.7012,1.7004,1.6993,1.6987,1.6978,1.697,1.6955,1.6945,1.6937,1.6924,1.6909,1.6897,1.6893,1.6888,1.6889,1.6884,1.6887,1.6887,1.6887,1.6889,1.6889,1.6889,1.6882,1.6882,1.6882]}]]